CAPE
0 0 0 0 0 0 0 0 1 1 27 56 96 5 44 157 174 242 168 15 99 416 451 432 622 569 369 239 212 134 385 652 560 1024 838 1228 704 734 83 176 1269 1560 1550 1542
0 0 0 0 0 0 0 0 0 0 0 60 175 91 90 14 41 37 43 224 151 193 159 279 128 156 146 394 92 454 336 824 612 1052 624 795 802 492 297 215 288 1653 1839 2083
0 0 0 0 0 0 0 0 0 0 0 80 160 118 62 3 13 40 156 295 244 126 138 204 78 94 70 410 300 146 653 1238 810 985 856 739 850 380 356 220 53 1494 1268 1844
0 0 0 0 0 0 0 0 0 0 12 67 3 73 32 93 96 2 114 261 57 91 105 172 102 117 177 327 525 197 894 1182 1032 922 995 723 421 396 449 96 258 913 1656 2152
0 0 0 0 0 0 0 0 0 0 0 2 51 49 96 72 1 14 101 311 16 122 81 148 126 154 118 266 474 470 501 1388 1230 1070 684 790 607 346 59 352 193 610 1316 1401
0 0 0 0 0 0 0 0 0 0 0 0 0 25 9 40 48 67 233 423 295 252 140 105 205 132 122 342 566 703 581 956 1087 944 1055 560 584 232 298 128 261 679 1836 1718
0 0 0 0 0 0 0 0 0 0 0 0 0 4 0 9 28 175 488 526 310 318 254 134 238 136 177 308 507 816 775 780 1365 934 645 1044 734 510 154 48 184 952 1736 1689
0 0 0 0 0 0 0 0 0 0 0 0 0 0 0 0 1 11 273 477 514 476 372 269 139 184 145 192 479 767 939 848 1019 1480 1027 533 924 1055 486 756 301 208 979 1388
0 0 0 0 0 0 0 0 0 0 0 0 0 0 0 0 0 0 7 348 479 529 555 425 189 159 125 191 396 660 1004 999 1106 1203 1443 1280 631 1307 966 228 803 1223 489 1130
0 0 0 0 0 0 0 0 0 0 0 0 0 0 0 0 0 0 0 10 132 434 670 580 324 192 161 161 310 447 1074 1199 1334 1313 1453 1584 1537 805 1382 905 505 490 856 1324
0 0 0 0 0 0 0 0 0 0 0 0 0 0 0 0 0 0 0 0 21 152 730 714 480 251 210 151 278 438 669 1398 1595 1726 1413 1824 2079 1748 1041 1460 1151 677 648 945
0 0 0 0 0 0 0 0 0 0 0 0 0 0 0 0 0 0 0 0 3 52 796 814 676 364 252 196 199 395 745 1261 1587 1732 1908 1607 1929 2404 1813 1095 1175 1031 884 1318
0 0 0 0 0 0 0 0 0 0 0 0 0 0 0 0 0 0 0 0 0 53 588 834 856 509 358 259 259 437 495 1136 1416 1712 1845 2260 2091 2231 2545 2046 1320 1298 1357 1321
64 0 0 0 0 0 0 0 0 0 0 0 0 0 0 0 0 0 0 0 0 0 296 709 931 735 539 393 317 434 460 611 1496 1669 2131 2201 2572 2487 2461 2619 2284 1529 1760 1770
0 0 0 0 0 0 0 0 0 0 0 0 0 0 0 0 8 14 38 23 16 51 539 574 815 986 842 673 447 425 540 594 718 2005 2199 2464 2529 2639 2595 2555 2669 2463 1724 2268
0 0 0 0 0 0 0 0 0 0 0 0 0 0 0 0 2 12 0 0 0 107 118 106 329 806 971 1048 852 703 665 833 983 1064 2236 2444 2750 2760 2736 2810 2772 2817 2698 1972
0 0 0 0 0 0 0 0 1 0 0 0 0 0 0 0 26 0 0 0 0 2 0 0 5 127 817 1122 1237 1230 1188 1041 1183 1422 1448 2276 2686 2885 2913 3006 3011 2971 2945 2978
0 0 0 0 0 0 0 0 0 0 0 0 0 42 12 9 65 12 0 0 0 0 0 0 0 0 0 1240 1744 1537 1530 1681 1498 1495 1820 1812 2535 2898 2920 2931 3046 3013 3037 3044
0 0 0 0 0 0 0 0 0 9 54 5 182 306 106 299 244 221 211 218 254 331 385 288 68 83 50 23 54 2127 1810 2016 2226 2277 2116 2201 2641 2930 3017 3005 3103 3198 3173 3151
0 0 0 0 0 0 0 0 0 0 1 0 0 165 241 229 118 31 18 49 193 351 450 798 803 310 139 419 516 1430 2391 2653 2300 2247 2779 3030 2819 3020 3026 3238 3219 3444 3379 3318
0 0 0 0 0 3 0 0 0 16 0 0 0 0 17 0 0 0 0 0 162 101 229 702 1194 1264 1052 701 398 817 490 1977 2738 2719 2493 2927 3199 3190 3323 3247 3401 3476 3649 3648
29 14 12 0 5 1 0 0 0 3 0 0 0 0 0 0 0 0 0 0 0 3 14 97 562 1245 1920 1381 846 375 1636 1062 1371 2951 3084 3044 3023 3198 3466 3578 3573 3660 3723 3793
0 6 5 2 0 0 0 0 0 0 0 0 0 0 0 0 0 0 0 0 0 0 0 2 219 1462 2023 2291 1311 1561 1268 1994 2656 3806 3230 3092 3143 3050 2639 3578 3720 3751 3821 3913
1 1 0 0 0 0 0 0 0 0 0 0 0 0 0 0 0 0 0 0 0 0 0 0 0 518 1384 1943 2436 2661 1316 2729 3406 2845 3918 3487 3327 3681 2833 3610 3693 3892 3977 4034
0 0 0 0 0 0 0 0 0 0 0 0 0 0 0 0 0 0 0 0 0 0 0 0 0 10 786 1450 3389 3760 3257 2833 2304 2247 4319 4231 3813 3312 3364 436 633 2794 2452 2138
0 6 14 9 2 4 0 0 0 0 0 0 0 0 0 0 0 0 0 0 0 0 0 0 0 342 862 1340 2703 3362 3410 3801 3997 2739 2976 4260 3933 3582 1472 0 1 1 0 2
CIN
0 0 0 0 0 0 0 0 -5 -10 -14 -5 -30 -269 -271 -217 -131 -158 -103 -234 -161 -32 -28 -24 -24 -28 -35 -77 -105 -124 -156 -140 -131 -81 -89 -55 -89 -82 -146 -136 -81 -63 -77 -50
0 0 0 0 0 0 0 0 0 0 0 -15 -138 -197 -221 -357 -388 -378 -277 -274 -255 -45 -30 -16 -32 -31 -64 -83 -132 -130 -159 -138 -156 -103 -135 -122 -107 -124 -113 -128 -159 -58 -50 -39
0 0 0 0 0 0 0 0 0 0 0 -19 -83 -152 -147 -154 -219 -265 -286 -363 -212 -76 -92 -55 -58 -90 -142 -113 -149 -184 -132 -117 -146 -135 -119 -101 -80 -139 -136 -172 -218 -48 -54 -44
0 0 0 0 0 0 0 0 0 0 -17 -11 -25 -49 -203 -192 -196 -103 -195 -226 -215 -133 -110 -87 -100 -121 -139 -170 -162 -197 -121 -104 -125 -144 -110 -123 -166 -170 -192 -250 -196 -104 -38 -35
0 0 0 0 0 0 0 0 0 0 0 -8 -10 -25 -175 -187 -92 -223 -206 -227 -169 -198 -175 -156 -143 -174 -218 -196 -192 -189 -160 -76 -72 -115 -156 -159 -174 -238 -358 -209 -228 -149 -62 -66
0 0 0 0 0 0 0 0 0 0 0 0 0 -8 -32 -100 -222 -175 -186 -216 -261 -167 -157 -211 -181 -161 -232 -219 -177 -186 -194 -128 -105 -136 -158 -227 -216 -297 -257 -334 -250 -174 -68 -62
0 0 0 0 0 0 0 0 0 0 0 0 0 -9 0 -33 -85 -135 -120 -230 -223 -129 -151 -228 -209 -246 -246 -280 -245 -186 -200 -192 -110 -153 -222 -197 -241 -258 -349 -404 -307 -139 -83 -65
0 0 0 0 0 0 0 0 0 0 0 0 0 0 0 0 -2 -32 -59 -134 -87 -117 -166 -205 -258 -257 -306 -335 -309 -259 -251 -245 -193 -124 -206 -292 -222 -191 -263 -223 -295 -299 -149 -92
0 0 0 0 0 0 0 0 0 0 0 0 0 0 0 0 0 0 -38 -70 -83 -101 -153 -183 -245 -274 -335 -362 -365 -327 -295 -292 -268 -247 -194 -210 -305 -195 -236 -374 -237 -145 -235 -117
0 0 0 0 0 0 0 0 0 0 0 0 0 0 0 0 0 0 0 -36 -59 -88 -122 -165 -237 -311 -346 -367 -374 -398 -328 -313 -294 -276 -226 -203 -218 -313 -210 -259 -310 -265 -193 -108
0 0 0 0 0 0 0 0 0 0 0 0 0 0 0 0 0 0 0 0 -51 -78 -96 -145 -221 -282 -325 -362 -361 -403 -398 -299 -262 -219 -277 -190 -156 -201 -273 -197 -229 -276 -252 -164
0 0 0 0 0 0 0 0 0 0 0 0 0 0 0 0 0 0 0 0 -65 -76 -92 -129 -195 -263 -299 -367 -376 -412 -390 -348 -328 -299 -219 -245 -174 -114 -175 -270 -245 -265 -257 -201
0 0 0 0 0 0 0 0 0 0 0 0 0 0 0 0 0 0 0 0 0 -95 -85 -105 -164 -229 -289 -331 -362 -384 -411 -378 -358 -293 -243 -160 -180 -164 -119 -175 -249 -245 -235 -205
-1 0 0 0 0 0 0 0 0 0 0 0 0 0 0 0 0 0 0 0 0 0 -92 -97 -123 -183 -228 -295 -307 -340 -376 -369 -327 -322 -261 -237 -189 -182 -154 -140 -196 -255 -217 -187
0 0 0 0 0 0 0 0 0 0 0 0 0 0 0 0 -122 -182 -203 -106 -71 -96 -119 -114 -97 -147 -177 -222 -258 -322 -333 -339 -353 -330 -300 -278 -256 -216 -198 -183 -164 -184 -236 -168
0 0 0 0 0 0 0 0 0 0 0 0 0 0 0 0 -71 -131 0 0 0 -163 -133 -164 -162 -137 -137 -190 -255 -291 -317 -322 -345 -342 -334 -309 -269 -251 -243 -210 -191 -168 -181 -248
0 0 0 0 0 0 0 0 -18 0 0 0 0 0 0 0 -145 -25 0 0 0 -127 0 0 -148 -137 -141 -143 -210 -248 -274 -285 -301 -356 -384 -345 -320 -294 -269 -238 -199 -193 -191 -178
0 0 0 0 0 0 0 -5 -50 0 0 -10 0 -61 -115 -140 -241 -313 0 0 0 0 0 0 0 0 -45 -195 -149 -207 -230 -294 -296 -335 -393 -395 -355 -326 -306 -266 -249 -240 -231 -217
0 0 0 0 0 0 0 0 0 -39 -393 -170 -370 -240 -94 -234 -298 -323 -351 -420 -431 -420 -404 -435 -474 -451 -449 -307 -409 -206 -177 -248 -338 -302 -370 -386 -358 -340 -324 -327 -281 -266 -242 -237
0 0 0 0 0 0 0 0 0 0 -26 0 0 -477 -239 -181 -305 -350 -587 -570 -589 -549 -507 -428 -388 -428 -428 -381 -324 -281 -210 -215 -211 -270 -362 -347 -340 -344 -350 -329 -305 -251 -255 -253
0 -1 0 0 0 -1 0 0 0 -67 0 0 0 0 -461 0 -113 0 0 -92 -681 -802 -705 -518 -428 -392 -362 -355 -371 -370 -303 -184 -292 -333 -362 -355 -338 -333 -331 -321 -298 -272 -224 -210
-33 -26 -8 0 0 0 0 0 0 -2 0 0 0 0 0 0 0 0 0 0 0 -871 -989 -926 -628 -436 -321 -330 -322 -394 -287 -325 -376 -239 -236 -296 -359 -321 -327 -298 -280 -244 -204 -181
-2 0 0 -1 0 -1 0 0 0 0 0 0 0 0 0 0 0 0 0 0 0 0 0 -517 -829 -339 -298 -256 -329 -269 -316 -296 -232 -165 -274 -329 -359 -346 -329 -278 -251 -215 -190 -168
-1 -9 -3 0 0 0 0 0 0 0 0 0 0 0 0 0 0 0 0 0 0 0 0 0 0 -582 -330 -258 -227 -260 -384 -192 -138 -175 -179 -296 -305 -279 -336 -247 -204 -181 -173 -151
0 0 0 0 0 0 0 0 0 0 0 0 0 0 0 0 0 0 0 0 0 0 0 0 0 -385 -426 -244 -38 -52 -151 -203 -233 -264 -120 -155 -235 -295 -281 -469 -422 -366 -225 -550
0 0 0 0 0 0 0 0 0 0 0 0 0 0 0 0 0 0 0 0 0 0 0 0 0 -504 -323 -216 -32 -30 -49 -63 -79 -185 -228 -125 -168 -233 -702 0 0 0 0 0
Wind_Speed
16 13 22 20 17 9 14 17 13 14 17 14 10 20 26 18 17 19 16 11 13 23 24 23 25 24 21 15 17 17 13 16 11 8 8 4 5 3 3 3 5 8 6 7
13 25 15 15 16 18 19 20 17 16 18 12 19 24 21 23 13 20 21 14 17 21 19 19 20 21 21 18 18 12 14 17 13 10 8 4 4 3 3 3 5 6 7 7
22 9 19 21 19 21 19 19 19 14 13 10 16 9 15 8 7 13 14 20 22 25 23 20 20 19 20 19 19 17 14 16 14 10 7 4 2 2 3 3 4 5 7 7
23 20 21 24 22 20 18 20 20 20 11 5 11 9 13 18 17 16 22 24 21 24 24 21 22 20 21 19 19 19 14 15 13 12 11 12 9 7 4 5 4 5 7 7
24 24 25 22 24 19 18 11 19 21 15 9 8 6 12 25 23 22 27 27 25 23 27 26 26 25 22 21 20 18 18 15 14 14 12 9 7 5 4 3 6 6 6 7
19 16 21 24 20 21 16 15 17 17 14 13 10 11 7 23 25 25 29 29 30 28 28 27 26 22 21 19 19 18 19 18 16 14 10 13 10 8 5 5 4 4 5 7
19 25 26 25 20 18 19 12 8 9 10 11 10 6 9 10 12 30 35 34 33 31 28 27 26 24 21 22 21 19 21 19 17 18 16 11 11 10 10 8 6 6 5 6
21 23 27 20 22 19 19 20 8 11 7 10 8 8 10 11 2 14 29 37 32 31 28 28 28 26 24 24 24 23 23 22 20 18 19 17 12 8 9 7 6 6 5 8
13 28 11 28 18 22 12 20 11 4 6 2 5 8 13 18 10 8 11 28 31 30 30 29 28 26 26 23 25 24 23 23 23 22 17 17 16 12 11 12 6 5 6 6
15 22 23 20 24 23 19 12 13 9 9 11 10 9 15 13 17 10 12 21 25 28 29 27 27 25 24 24 23 24 23 23 22 21 17 16 17 16 11 9 9 10 7 6
21 6 26 18 24 26 12 12 15 6 6 7 5 12 11 18 21 18 17 12 21 20 27 26 25 25 25 24 21 22 22 22 20 19 19 17 16 16 14 10 11 10 7 8
18 11 8 29 20 15 18 18 11 12 13 4 5 11 5 9 27 21 15 12 15 19 27 26 26 26 24 23 21 21 20 21 22 20 17 17 14 14 14 14 11 10 11 7
16 7 8 12 12 20 22 22 20 7 7 10 8 11 4 11 18 21 12 11 13 14 23 25 25 24 23 22 22 21 22 21 20 18 18 16 17 16 15 15 15 12 12 13
21 14 16 12 13 6 8 20 22 17 8 8 12 5 10 7 9 8 9 10 9 10 21 23 23 25 23 22 22 21 21 21 20 20 20 19 18 18 16 15 17 16 14 14
13 14 15 20 21 14 15 22 23 21 18 13 10 9 10 5 7 8 8 8 9 10 14 19 23 23 23 22 21 21 22 21 21 21 20 21 19 17 17 17 16 16 16 13
18 12 18 12 12 11 11 15 29 22 21 14 10 11 9 8 8 10 10 11 11 11 10 10 8 17 22 23 21 22 21 21 20 20 21 20 19 18 19 18 17 16 16 17
21 12 11 6 6 5 6 11 8 19 19 20 15 9 6 7 11 11 12 10 10 10 9 10 8 8 15 17 17 17 18 19 19 20 20 18 19 19 19 18 17 17 17 16
20 20 5 6 5 2 7 7 10 9 11 4 9 5 16 11 8 9 7 12 10 9 10 9 9 9 4 8 16 17 16 14 18 17 17 19 17 19 18 18 18 18 16 17
17 16 6 3 4 5 7 13 11 4 14 23 18 15 16 20 24 16 14 15 13 12 9 7 8 7 9 11 6 10 16 14 12 15 15 16 17 18 18 20 19 18 16 15
16 12 3 4 4 2 19 28 30 16 11 19 20 22 11 22 14 5 10 13 14 14 13 12 10 7 9 8 9 2 9 16 18 16 12 14 16 18 19 19 18 16 16 16
11 5 7 6 4 6 17 25 18 10 5 12 16 17 17 17 7 7 12 14 15 14 16 16 13 9 6 5 6 6 4 1 4 3 8 11 13 15 16 16 15 15 14 13
8 6 2 4 2 4 16 14 15 5 4 7 9 12 13 14 15 14 14 16 14 14 15 17 16 15 12 5 4 6 3 4 2 6 8 8 8 9 9 14 13 13 13 13
5 5 5 2 4 13 18 5 18 11 11 9 7 8 8 9 10 10 10 11 11 10 10 11 13 16 16 13 2 3 6 2 4 4 8 10 8 10 9 12 11 10 11 11
13 3 5 12 10 17 22 9 17 17 19 19 7 7 8 7 7 8 8 8 8 9 8 9 12 14 15 15 15 13 7 7 6 5 6 6 9 7 8 5 8 10 10 10
7 9 14 11 13 22 14 18 18 21 21 20 23 11 6 7 4 5 5 6 6 7 7 7 9 11 13 14 11 15 8 5 2 4 5 7 7 10 6 5 2 6 3 6
11 11 6 13 23 18 27 26 23 22 22 22 19 18 13 7 5 7 3 2 3 8 9 6 8 11 15 13 10 7 8 7 7 6 4 5 5 7 7 8 5 11 8 7
Wind_Direction
215 217 219 217 233 230 242 244 223 240 224 220 185 152 174 201 193 185 183 209 235 192 194 193 196 189 189 172 163 173 149 165 162 166 178 178 204 228 224 224 166 166 174 177
210 231 220 213 223 236 237 247 258 235 247 194 135 161 187 173 174 185 201 198 235 187 189 179 172 172 170 169 173 164 162 164 172 173 180 167 177 198 194 210 173 179 180 173
212 222 222 209 220 226 235 241 247 252 254 134 132 140 165 192 266 263 180 208 208 184 189 180 179 174 171 168 174 176 166 162 173 170 166 160 161 190 187 208 217 186 185 172
227 232 209 224 219 224 220 237 248 258 261 182 170 159 200 175 209 212 212 199 217 187 186 183 185 179 177 175 173 175 167 165 176 168 174 188 199 195 196 187 198 192 185 177
221 206 230 215 225 219 235 226 242 254 263 269 220 205 203 197 210 198 214 198 208 206 186 184 187 183 182 173 173 175 177 170 177 180 183 183 189 186 184 176 193 189 196 190
235 238 222 234 218 226 225 227 242 245 244 249 240 194 203 198 208 198 205 200 202 202 187 188 186 182 177 173 172 173 178 182 180 186 181 193 194 191 195 200 188 192 186 196
248 227 232 225 231 218 212 218 231 239 227 231 238 212 213 227 196 192 193 190 201 190 185 183 180 183 179 171 175 175 179 186 185 190 200 195 196 190 197 203 195 188 170 189
233 245 215 219 219 222 211 217 198 210 206 230 238 248 255 253 213 195 181 183 188 184 184 181 182 181 182 177 175 178 181 186 189 187 198 206 204 199 204 191 196 202 183 179
246 240 242 225 217 223 210 216 213 248 218 211 194 253 258 263 258 216 202 173 186 182 180 180 180 180 181 179 178 181 184 188 190 195 195 200 206 204 202 208 195 196 205 186
287 258 257 228 220 239 214 173 216 219 205 223 236 218 231 234 246 221 218 194 184 181 176 178 177 178 181 184 181 182 182 189 192 194 195 199 201 207 204 189 199 209 218 222
312 258 257 252 210 218 215 210 200 181 176 183 204 237 221 217 223 216 212 179 184 174 175 176 175 177 180 185 179 183 181 185 189 192 198 199 201 204 205 201 202 207 201 209
300 290 274 241 250 244 212 213 203 199 226 218 191 256 308 317 205 208 202 201 169 177 172 173 173 175 179 183 182 183 182 184 190 194 191 202 201 200 199 208 207 201 210 203
321 340 311 263 250 257 229 196 215 174 144 217 223 262 262 318 188 182 173 182 188 155 166 172 171 175 180 181 184 184 187 189 187 188 194 193 201 202 200 200 208 206 206 212
307 262 229 273 267 226 254 211 203 208 198 204 227 237 290 19 63 132 164 144 161 151 164 172 171 178 181 182 184 185 190 188 185 189 192 197 199 201 201 201 202 207 208 209
296 276 263 265 267 277 277 211 194 207 212 199 223 184 220 158 92 85 93 108 138 149 155 162 175 178 182 182 185 187 188 189 189 188 193 199 198 196 200 205 204 203 210 209
302 282 308 287 285 281 299 293 194 197 210 222 234 224 188 169 117 90 86 79 81 94 96 103 128 183 184 181 183 188 188 192 188 195 196 197 194 195 198 201 204 203 206 212
290 318 323 298 323 297 298 245 273 207 194 210 215 217 161 128 130 130 107 89 86 77 71 77 104 118 181 187 183 182 187 188 194 197 199 195 194 196 199 199 200 206 209 208
274 290 277 279 11 199 256 339 315 236 201 225 232 172 165 143 81 69 79 110 84 68 50 42 52 40 21 156 184 182 181 177 191 197 195 198 194 196 197 200 202 206 208 209
255 269 292 293 336 313 287 1 349 323 46 14 13 353 153 103 72 39 41 60 68 66 53 51 64 63 36 35 21 180 184 184 174 190 192 191 191 193 194 201 202 205 209 212
211 256 296 339 294 211 357 345 334 319 59 11 18 25 33 93 76 29 27 42 47 44 40 26 22 42 40 14 21 88 188 185 197 198 180 178 187 192 197 198 200 202 208 213
187 200 252 259 295 3 341 335 353 53 28 11 11 19 39 65 76 40 33 34 43 39 27 15 15 16 3 19 25 29 33 80 252 184 173 174 182 190 194 196 197 200 204 208
17 289 170 274 31 317 345 360 38 348 66 49 1 19 26 39 41 34 30 24 27 34 22 17 6 351 337 347 20 341 297 269 313 196 186 189 182 182 178 186 193 196 198 207
50 38 339 320 293 306 336 334 321 356 2 358 25 15 19 33 32 25 19 22 15 14 25 19 5 348 345 344 328 233 261 235 259 233 207 195 176 185 185 183 186 191 194 204
348 30 40 338 331 354 325 312 354 335 348 334 347 355 2 22 38 27 26 15 6 4 357 21 5 348 338 336 332 313 249 199 189 222 225 191 181 178 185 162 183 192 199 206
31 15 336 301 320 342 295 315 328 325 331 332 337 322 321 336 358 67 35 16 352 349 346 18 356 333 323 322 331 331 321 313 240 240 237 199 184 185 152 81 4 220 180 230
14 356 321 295 303 287 276 292 301 308 310 313 318 322 326 339 341 55 35 344 1 345 345 354 352 324 314 315 310 324 341 348 329 257 254 220 177 174 137 141 121 55 53 28